Boscombe Down, United Kingdom

10:08 AM BST on May 27, 2017 (GMT +0100)
Boscombe Down

Weather History for EGDM - December, 2013

Change the Weather History Date:

Saturday, December 28, 2013

  Actual Average Record
Temperature  
Mean Temperature 38 °F -  
Max Temperature 44 °F 42 °F 53 °F (2015)
Min Temperature 33 °F 34 °F 24 °F (2005)
Degree Days  
Heating Degree Days 26    
Moisture  
Dew Point 34 °F    
Average Humidity 84    
Maximum Humidity 97    
Minimum Humidity 64    
Precipitation  
Precipitation 0.00 in - - ()
Sea Level Pressure  
Sea Level Pressure 29.47 in    
Wind  
Wind Speed 8 mph ()    
Max Wind Speed 16 mph    
Max Gust Speed -    
Visibility 7.5 miles    
Events Fog , Rain    
Averages and records for this station are not official NWS values.
T = Trace of Precipitation, MM = Missing Value Source: Averaged Metar Reports

Daily Weather History Graph

Daily Weather History Graph

Search for Another Location

Airport or City:

Trip Planner

Search our weather history database for the weather conditions in past years. The results will help you decide how hot, cold, wet, or windy it might be!

Date:

Astronomy

Dec. 28, 2013 Rise Set
Actual Time 8:10 AM GMT 4:06 PM GMT
Civil Twilight 7:31 AM GMT 4:46 PM GMT
Nautical Twilight 6:48 AM GMT 5:28 PM GMT
Astronomical Twilight 6:08 AM GMT 6:09 PM GMT
Moon 3:13 AM GMT (12/28) 1:02 PM GMT (12/28)
Length of Visible Light 9h 15m
Length of Day
7h 55m
Waning Crescent, 21% of the Moon is Illuminated
Dec 28
Waning Crescent
Jan 1
New
Jan 8
First Quarter
Jan 16
Full
Jan 24
Last Quarter

Hourly Weather History & Observations

Time (GMT) Temp. Windchill Dew Point Humidity Pressure Visibility Wind Dir Wind Speed Gust Speed Precip Events Conditions
12:00 AM 42 °F - 34 °F 64% 29.28 in 22 mi WSW 16.1 mph - -   Scattered Clouds
12:50 AM 41.0 °F 34.3 °F 33.8 °F 76% 29.27 in 6.2 mi SW 11.5 mph - N/A   Unknown
1:00 AM 40 °F - 33 °F 69% 29.29 in 19 mi SW 11.5 mph - -  
1:50 AM 41.0 °F 33.5 °F 33.8 °F 76% 29.27 in 6.2 mi SW 13.8 mph - N/A   Unknown
2:00 AM 40 °F - 34 °F 72% 29.30 in 22 mi SW 13.8 mph - -  
2:50 AM 37.4 °F 30.8 °F 33.8 °F 87% 29.30 in 6.2 mi SSW 9.2 mph - N/A   Unknown
3:00 AM 38 °F - 33 °F 77% 29.32 in 16 mi SSW 9.2 mph - -  
3:50 AM 37.4 °F 32.1 °F 32.0 °F 81% 29.30 in 6.2 mi SSW 6.9 mph - N/A   Unknown
4:00 AM 37 °F - 33 °F 78% 29.33 in 22 mi SSW 6.9 mph - -  
4:50 AM 37.4 °F 31.4 °F 32.0 °F 81% 29.30 in 6.2 mi SSW 8.1 mph - N/A   Unknown
5:00 AM 37 °F - 32 °F 77% 29.34 in 25 mi SSW 8.1 mph - -  
5:50 AM 35.6 °F 29.2 °F 32.0 °F 87% 29.33 in 6.2 mi SSW 8.1 mph - N/A   Unknown
6:00 AM 35 °F - 32 °F 83% 29.36 in 28 mi SSW 8.1 mph - -  
6:50 AM 33.8 °F 28.6 °F 30.2 °F 87% 29.33 in 6.2 mi SSW 5.8 mph - N/A   Scattered Clouds
7:00 AM 34 °F - 31 °F 84% 29.37 in 25 mi SSW 5.8 mph - -   Partly Cloudy
7:50 AM 35.6 °F 29.2 °F 32.0 °F 87% 29.39 in 6.2 mi SW 8.1 mph - N/A   Scattered Clouds
8:00 AM 36 °F - 33 °F 82% 29.41 in 25 mi SW 8.1 mph - -   Partly Cloudy
8:50 AM 35.6 °F 29.9 °F 32.0 °F 87% 29.42 in 6.2 mi South 6.9 mph - N/A   Unknown
9:00 AM 35 °F - 32 °F 83% 29.44 in 22 mi South 6.9 mph - -  
9:50 AM 39.2 °F 35.9 °F 33.8 °F 81% 29.44 in 6.2 mi SW 4.6 mph - N/A   Unknown
10:00 AM 40 °F - 34 °F 73% 29.46 in 28 mi SW 4.6 mph - -  
10:50 AM 42.8 °F 38.6 °F 37.4 °F 81% 29.44 in 6.2 mi SSW 6.9 mph - N/A   Unknown
11:00 AM 44 °F - 37 °F 68% 29.48 in 22 mi SSW 6.9 mph - -  
11:50 AM 41.0 °F 35.8 °F 35.6 °F 81% 29.44 in 6.2 mi South 8.1 mph - N/A   Partly Cloudy
12:00 PM 41 °F - 36 °F 74% 29.48 in 22 mi South 8.1 mph - -   Scattered Clouds
12:50 PM 41.0 °F 37.1 °F 37.4 °F 87% 29.47 in 6.2 mi South 5.8 mph - N/A   Mostly Cloudy
1:00 PM 42 °F - 37 °F 77% 29.49 in 16 mi South 5.8 mph - -   Scattered Clouds
1:50 PM 44.6 °F 40.2 °F 37.4 °F 76% 29.47 in 6.2 mi SSW 8.1 mph - N/A   Mostly Cloudy
2:00 PM 44 °F - 38 °F 72% 29.48 in 28 mi SSW 8.1 mph - -   Mostly Cloudy
2:50 PM 41.0 °F 34.7 °F 37.4 °F 87% 29.47 in 6.2 mi South 10.4 mph - N/A   Mostly Cloudy
3:00 PM 42 °F - 38 °F 80% 29.50 in 25 mi South 10.4 mph - -   Partly Cloudy
3:50 PM 41.0 °F 37.1 °F 39.2 °F 93% 29.47 in 6.2 mi SSW 5.8 mph - N/A Rain Rain Showers
4:00 PM 41 °F - 39 °F 90% 29.51 in 6 mi SSW 5.8 mph - - Rain Rain Showers
4:50 PM 39.2 °F 37.0 °F 37.4 °F 93% 29.50 in 6.2 mi South 3.5 mph - N/A   Mostly Cloudy
5:00 PM 39 °F - 37 °F 91% 29.54 in 9 mi South 3.5 mph - - Rain Rain
5:50 PM 39.2 °F 37.0 °F 37.4 °F 93% 29.53 in 6.2 mi West 3.5 mph - N/A   Mostly Cloudy
6:00 PM 39 °F - 38 °F 94% 29.57 in 9 mi West 3.5 mph - -   Scattered Clouds
6:50 PM 37.4 °F 34.9 °F 35.6 °F 93% 29.56 in 6.2 mi NW 3.5 mph - N/A   Overcast
7:00 PM 37 °F - 36 °F 94% 29.60 in 7 mi NW 3.5 mph - -   Overcast
7:50 PM 35.6 °F 31.7 °F 33.8 °F 93% 29.59 in 5.0 mi NW 4.6 mph - N/A   Partly Cloudy
8:00 PM 35 °F - 34 °F 95% 29.64 in 5 mi NW 4.6 mph - - Fog Fog
8:50 PM 35.6 °F 30.7 °F 33.8 °F 93% 29.62 in 6.2 mi WNW 5.8 mph - N/A   Unknown
9:00 PM 35 °F - 34 °F 94% 29.67 in 7 mi WNW 5.8 mph - - Fog Fog
9:50 PM 33.8 °F 29.6 °F 32.0 °F 93% 29.68 in 6.2 mi NW 4.6 mph - N/A   Unknown
10:00 PM 33 °F - 32 °F 96% 29.70 in 11 mi NW 4.6 mph - -  
10:50 PM 33.8 °F 28.6 °F 32.0 °F 93% 29.71 in 6.2 mi West 5.8 mph - N/A   Unknown
11:00 PM 33 °F - 33 °F 97% 29.73 in 9 mi West 5.8 mph - -  
11:50 PM 33.8 °F 27.7 °F 32.0 °F 93% 29.74 in 6.2 mi West 6.9 mph - N/A   Partly Cloudy